GFSMA_500_spd_159.txt.gz
Wind_Speed
18 19 18 18 17 20 19 17 14 13 13 12 10 9 9 13 14 16 17 17 19 21 21 19 19 20 21 21 21 22 22 22 22 21 20 19 18 17 16 16 16 16 16
15 17 14 17 17 20 18 16 14 14 13 12 10 7 7 10 11 13 14 14 16 16 16 17 16 17 18 18 19 19 19 19 20 19 19 18 18 17 17 16 17 17 18
15 15 13 16 18 22 19 17 15 14 12 11 9 8 7 7 9 11 12 11 12 12 13 13 13 14 14 16 16 15 14 15 15 15 14 13 14 13 13 13 15 15 16
15 17 17 15 21 22 21 18 15 13 11 10 8 8 7 6 7 9 10 9 8 10 10 9 10 10 10 12 12 11 12 11 11 12 11 11 10 10 10 11 13 13 15
16 16 16 18 22 21 20 18 16 14 11 10 8 6 6 5 6 7 8 7 6 8 8 7 7 6 8 10 10 11 10 10 9 8 8 8 7 8 9 10 11 13 14
15 14 14 16 20 21 19 17 16 13 12 9 7 6 4 3 4 4 5 5 4 6 6 6 6 4 5 7 8 10 10 10 8 6 5 5 5 5 6 8 8 9 9
15 14 14 15 17 19 19 17 16 14 12 10 8 5 2 0 4 1 3 3 4 6 4 5 5 3 4 5 7 9 9 8 7 7 6 7 6 7 8 9 10 9 10
14 14 14 15 16 18 18 17 16 14 12 9 6 5 2 3 8 6 1 2 6 6 4 5 5 4 3 4 6 6 7 8 9 10 11 11 11 12 11 12 12 13 13
15 15 14 16 17 18 19 18 16 14 6 10 7 6 3 8 4 2 3 2 4 3 3 3 3 4 3 3 3 5 6 7 8 9 10 10 10 12 12 12 11 11 12
15 16 15 16 17 19 19 18 17 15 15 11 9 7 6 5 5 2 3 8 2 4 1 1 1 2 3 2 1 3 5 6 8 8 10 10 10 11 11 11 12 13 14
17 17 17 16 18 18 19 18 16 16 13 11 11 9 9 6 3 3 8 14 3 5 6 6 5 4 4 4 2 3 3 4 6 7 8 9 10 11 11 11 11 11 12
20 19 17 17 18 19 18 17 16 15 14 12 12 11 10 8 2 3 5 1 4 14 5 8 8 7 6 5 5 4 4 4 5 6 7 8 8 9 10 11 12 12 12
21 21 18 18 18 18 17 18 17 16 16 14 13 13 11 10 8 8 7 4 2 9 7 10 11 10 9 8 7 7 4 5 5 6 8 8 8 9 8 9 12 14 13
21 21 22 20 19 20 18 18 16 16 16 16 15 14 13 11 11 11 11 10 8 7 9 10 11 11 9 8 8 8 6 7 7 8 8 9 9 10 10 12 14 15 15
22 22 25 24 23 21 20 18 16 17 18 17 16 15 15 14 15 16 14 13 13 12 10 6 10 10 10 10 9 8 9 9 11 11 10 11 11 13 14 15 15 16 17
22 23 24 24 25 24 21 19 17 17 17 17 16 17 18 17 17 16 17 15 14 14 14 12 10 10 11 11 10 10 11 12 13 14 13 13 14 16 17 19 19 19 19
21 23 26 26 25 25 25 23 23 19 20 19 18 19 18 18 18 18 17 16 16 15 16 17 14 12 12 12 13 12 12 13 17 17 18 17 17 19 21 22 21 23 23
21 23 24 25 25 25 24 25 25 23 23 24 20 21 21 20 21 21 20 19 18 18 19 20 16 14 16 16 16 15 15 15 16 20 21 21 21 22 23 23 25 26 28
22 23 23 23 25 25 25 25 26 27 25 25 23 25 24 23 23 24 22 21 21 22 22 19 18 16 16 18 19 19 20 20 19 22 23 24 24 25 27 28 28 30 32
22 23 22 22 23 24 25 25 26 27 27 28 27 25 26 26 25 26 24 24 24 24 23 22 20 19 20 21 22 22 25 25 24 23 27 27 27 29 31 32 34 35 35
26 25 24 24 24 24 24 24 26 28 29 29 28 28 28 28 27 27 27 28 27 26 25 24 23 22 25 25 26 28 29 29 30 29 27 30 33 33 34 34 35 36 36
26 26 25 25 25 26 27 27 29 30 30 30 30 30 29 29 29 29 30 31 31 29 28 28 28 27 28 28 30 31 33 35 33 32 37 34 30 32 35 37 40 39 40
30 30 30 29 29 29 29 30 32 32 31 31 32 32 32 31 33 32 33 34 33 32 31 31 32 32 32 33 33 34 35 36 36 37 37 38 40 40 39 42 44 45 46
34 34 34 34 34 34 35 34 35 36 34 34 35 35 35 35 36 36 36 36 36 35 34 34 34 36 35 36 37 37 39 40 40 40 41 43 46 44 44 44 43 44 45
37 37 38 38 37 37 36 37 40 40 38 37 37 38 37 39 38 40 39 38 40 39 40 40 40 41 39 37 39 41 45 43 39 39 44 47 46 46 46 47 51 52 50
37 39 39 40 41 42 40 44 44 45 44 44 43 43 42 44 43 43 42 42 43 45 42 43 43 40 41 43 44 44 44 45 45 44 45 49 49 52 55 58 57 57 59

GFSMA_500_spd_162.txt.gz
Wind_Speed
22 20 20 22 20 19 18 16 14 14 13 10 8 8 10 11 13 16 17 19 18 19 20 21 21 22 22 21 21 20 20 19 19 19 19 18 18 18 18 18 19 19 20
20 21 22 22 20 14 15 15 13 11 10 9 7 8 8 10 10 12 16 14 15 17 17 18 18 18 18 18 18 17 17 17 16 16 16 16 16 17 17 18 18 18 19
18 24 22 21 22 19 16 13 11 10 9 8 8 8 7 8 8 9 9 11 13 13 13 13 14 14 15 15 14 14 14 15 14 13 13 14 14 14 14 16 16 17 18
32 7 16 18 23 17 15 13 12 8 9 7 6 5 4 6 7 7 6 9 8 10 9 9 10 10 12 13 14 15 16 15 15 13 12 12 12 12 13 13 13 16 18
13 20 34 22 26 19 19 16 14 12 5 6 5 4 4 3 5 5 7 5 5 7 8 6 7 6 8 10 12 14 14 13 12 12 11 10 11 11 11 12 13 14 15
13 6 24 23 24 17 16 11 11 12 8 6 4 3 3 2 4 4 4 4 3 6 4 5 5 4 6 8 11 13 13 11 11 10 9 9 10 10 10 11 11 12 13
14 11 9 20 19 17 16 14 9 7 9 9 7 3 4 2 3 3 10 4 5 3 4 4 3 3 4 6 9 11 10 9 9 9 9 10 11 10 10 11 12 13 14
17 14 15 15 22 24 19 12 10 8 9 5 3 4 3 4 4 3 4 4 6 4 3 3 3 4 4 5 7 7 8 8 9 9 10 10 11 13 13 13 14 16 16
16 18 19 22 24 24 21 20 15 11 7 8 4 5 5 10 10 9 7 2 6 3 6 2 3 5 6 4 4 5 6 7 8 9 10 11 12 14 14 14 15 15 16
15 16 17 19 22 23 24 22 16 12 11 15 6 5 5 9 10 3 6 4 5 4 2 4 3 2 3 6 4 4 5 5 6 7 10 11 12 12 12 12 11 12 13
15 16 15 17 19 20 22 19 16 14 14 11 12 5 17 2 7 8 3 1 6 6 4 6 3 8 3 5 4 4 4 2 4 5 7 7 8 8 8 8 9 10 11
16 15 15 14 17 20 20 19 18 14 12 11 10 9 10 8 7 1 9 8 11 12 5 3 5 8 9 6 7 6 7 6 4 4 5 6 6 6 7 7 9 11 12
18 16 14 15 16 19 20 20 17 15 13 11 10 9 9 11 9 8 5 11 11 14 14 4 6 8 10 11 8 10 9 8 7 5 5 6 7 8 8 10 11 13 14
20 18 18 18 18 17 20 18 16 15 13 12 12 10 11 11 10 11 10 11 11 16 10 11 10 10 13 12 12 11 11 11 10 8 8 8 9 10 11 12 14 15 16
21 18 21 21 20 20 19 17 16 15 15 14 14 12 12 13 14 12 16 12 10 13 15 12 12 13 10 14 11 14 12 13 12 12 11 11 13 14 14 16 17 18 19
23 24 22 24 24 23 23 19 19 16 16 16 15 13 15 15 17 17 16 16 15 15 14 14 12 12 14 14 13 13 14 15 14 14 14 14 15 16 18 19 20 21 21
25 22 26 29 28 26 25 22 21 18 19 18 18 17 18 17 17 18 18 18 17 16 16 19 16 16 15 15 16 15 15 15 17 15 17 17 17 19 21 23 23 24 25
25 24 22 30 17 20 26 25 26 23 23 23 23 16 19 20 18 20 20 20 19 19 18 20 22 19 16 18 17 17 17 15 21 19 19 20 20 21 22 24 26 27 28
26 24 27 26 22 25 25 27 27 27 26 26 23 22 23 22 22 23 24 22 22 21 19 22 24 23 18 16 17 20 19 17 20 22 24 23 23 25 26 27 29 30 31
23 23 24 24 22 22 24 29 27 27 28 29 29 27 27 26 27 27 26 25 24 23 24 24 24 24 22 19 18 21 23 23 23 25 27 28 27 28 29 31 32 31 33
24 24 24 26 25 25 26 27 28 29 30 30 30 30 30 29 29 29 28 28 27 27 27 27 27 26 26 25 24 25 25 29 29 30 31 23 24 31 35 37 35 35 35
26 27 27 28 28 29 29 28 28 29 29 29 30 30 30 30 31 31 31 31 30 30 30 31 31 30 29 28 30 32 34 34 32 32 36 37 32 32 35 36 41 43 42
26 28 28 29 30 31 30 28 29 29 28 28 29 30 31 31 32 32 33 34 33 33 33 34 33 33 31 32 32 33 38 39 40 38 38 38 37 38 37 37 42 43 44
31 30 30 30 30 29 29 29 30 31 32 30 31 33 34 34 35 34 35 34 34 34 37 37 38 38 36 38 41 38 38 39 38 39 43 43 45 42 40 41 44 46 46
33 33 32 33 32 33 33 35 34 35 35 34 34 36 35 36 36 37 39 37 38 37 38 42 42 40 41 43 45 46 43 40 41 41 43 44 44 45 47 46 50 51 51
34 33 33 33 35 35 35 37 39 39 37 38 39 39 38 39 40 42 43 43 43 43 44 45 45 44 46 45 42 42 43 40 42 40 43 45 48 52 54 52 54 56 57

GFSMA_500_spd_165.txt.gz
Wind_Speed
25 24 28 25 22 18 14 13 11 13 12 7 10 14 16 19 22 20 19 18 18 20 20 21 22 23 22 22 22 21 20 19 19 19 19 19 19 19 19 20 21 21 21
24 25 27 24 22 18 15 13 11 12 14 8 9 14 14 17 14 16 16 14 15 16 16 18 18 18 19 19 19 18 18 17 16 15 15 16 16 16 17 18 19 20 20
23 23 25 22 23 23 19 13 11 10 10 10 12 8 9 9 11 10 14 11 14 12 12 12 14 15 17 17 17 17 16 16 15 14 13 14 14 14 15 15 16 18 20
20 21 23 25 23 18 15 13 9 9 7 6 9 7 5 3 5 9 7 12 12 9 9 7 9 12 15 16 17 17 16 15 14 14 13 13 13 13 13 15 17 19 19
21 24 23 19 18 16 12 11 8 11 5 6 7 4 2 1 3 5 3 8 15 10 7 5 6 9 13 15 15 15 15 14 14 14 14 14 15 14 15 15 15 16 17
13 14 30 25 19 17 12 10 7 8 8 10 7 7 1 2 2 1 3 4 7 15 11 6 3 4 9 11 12 12 12 13 13 14 14 13 13 12 12 13 14 15 16
8 15 21 20 20 12 15 14 12 8 7 4 5 2 2 3 5 4 0 2 1 4 6 10 6 4 6 8 9 9 10 10 11 11 11 11 11 11 12 13 13 13 14
12 15 21 17 19 18 16 13 8 7 8 6 6 4 3 5 8 9 5 2 5 4 4 2 6 7 3 4 5 6 7 8 9 10 10 11 11 11 11 11 11 12 14
16 13 19 18 19 18 16 9 10 9 8 8 7 4 7 8 7 7 4 5 4 2 4 2 3 4 9 4 4 5 4 5 7 8 9 9 9 10 10 10 11 13 13
8 10 12 14 15 18 16 10 14 11 11 11 6 6 4 7 4 4 5 4 2 4 5 5 8 2 5 4 2 3 2 3 4 5 6 6 7 8 9 9 9 9 9
12 11 12 13 15 17 18 19 11 11 12 11 8 14 10 3 1 6 4 1 3 7 9 10 7 4 3 1 3 2 4 4 3 4 4 4 4 5 5 5 7 9 10
16 14 15 14 14 18 19 20 17 15 13 11 11 8 6 5 3 3 5 3 5 7 15 9 10 8 5 5 5 5 6 6 6 6 4 4 4 5 5 6 7 9 11
18 18 17 16 15 17 18 19 18 15 14 12 11 9 9 5 4 5 6 6 3 2 6 4 10 9 9 6 5 6 8 9 8 8 8 7 7 8 9 9 10 12 13
19 18 17 18 18 18 19 19 17 17 14 14 12 8 9 8 5 7 6 7 5 6 5 8 11 8 13 8 4 7 12 12 11 10 10 11 12 12 13 14 15 16 17
20 21 23 22 18 18 19 21 18 18 15 15 13 9 10 12 9 11 11 10 11 9 9 8 10 11 12 9 7 8 11 12 12 12 12 13 14 15 15 16 17 18 19
21 23 23 23 21 21 21 21 20 18 17 16 15 14 13 13 13 14 13 14 13 13 16 12 13 12 12 13 12 12 12 13 13 13 14 15 16 17 18 18 19 20 21
19 21 23 23 23 24 23 22 24 21 21 19 16 17 16 15 17 16 15 15 15 13 15 17 16 15 16 15 15 16 15 16 17 16 18 19 20 20 20 20 20 21 22
21 22 25 24 24 22 27 27 28 26 25 23 19 17 17 17 19 19 20 19 17 15 16 18 17 13 16 17 16 15 16 18 18 18 20 22 23 23 24 24 24 25 26
25 25 25 24 21 26 30 26 32 32 29 27 24 23 22 21 22 21 22 22 20 20 18 20 21 21 19 18 18 17 22 12 20 23 25 27 26 26 27 28 28 28 29
24 27 30 28 28 25 26 30 33 32 31 28 26 26 26 23 24 25 25 25 24 23 22 22 22 23 23 21 20 21 22 21 23 24 27 29 32 32 31 31 33 32 32
27 27 27 27 26 26 26 28 30 32 31 29 28 28 30 29 30 30 27 27 27 26 26 25 24 25 27 27 25 26 27 28 30 32 38 33 35 35 32 29 31 34 35
32 30 28 28 28 27 28 26 24 27 28 30 29 30 32 30 31 30 30 29 29 28 28 27 27 28 29 29 31 31 32 33 34 36 35 37 38 35 34 35 37 40 42
37 33 32 30 29 29 28 26 25 26 27 28 28 29 30 30 30 30 30 30 31 30 28 29 29 30 29 32 33 35 34 37 38 39 39 39 37 37 37 38 39 42 44
37 36 35 31 31 29 27 27 26 27 29 29 29 30 29 30 31 31 32 33 34 33 33 32 32 32 33 36 37 38 39 42 44 45 45 45 42 38 39 42 42 41 43
40 39 36 33 30 28 30 29 28 29 30 30 31 31 29 31 33 34 34 33 35 34 36 37 36 36 38 40 41 42 43 43 44 44 47 47 44 43 44 44 45 47 52
31 40 38 34 33 34 33 28 29 31 32 32 33 32 34 35 36 36 38 38 39 39 41 41 42 42 42 43 45 44 45 46 48 47 46 46 49 49 51 52 53 56 56

GFSMA_500_spd_168.txt.gz
Wind_Speed
22 21 19 19 16 10 13 11 13 12 13 10 14 14 10 10 13 13 19 17 19 20 20 20 20 21 21 22 21 21 20 19 18 17 17 17 17 17 17 17 18 18 19
19 18 19 17 14 11 11 13 13 14 14 10 11 12 10 10 10 12 16 14 16 16 17 17 17 17 17 17 18 18 17 16 14 14 14 14 13 14 15 15 16 17 18
17 18 20 18 16 11 9 9 9 13 11 10 7 10 10 9 10 12 11 10 9 11 12 14 16 16 16 16 16 15 15 14 14 13 12 12 11 11 12 14 15 17 18
17 18 22 20 16 11 6 6 8 10 12 11 5 10 9 8 9 10 11 7 4 3 6 10 12 13 14 14 14 14 14 14 13 12 12 12 12 12 14 15 16 16 16
21 22 24 20 16 12 9 9 10 7 6 6 6 10 10 8 10 9 6 3 2 3 4 3 7 10 11 12 13 14 13 13 13 13 13 14 14 14 14 14 14 15 15
23 24 24 22 19 15 13 9 10 6 5 4 7 9 9 9 8 6 3 1 3 3 4 4 4 6 7 10 11 12 13 12 12 13 12 11 11 11 11 11 12 13 14
15 27 28 19 20 18 15 11 9 6 4 5 10 8 8 7 7 6 2 1 1 2 2 5 5 6 6 6 8 9 10 11 10 10 10 9 9 9 9 10 10 10 10
11 16 28 28 23 21 17 12 8 6 3 2 5 4 9 6 9 3 3 3 2 2 1 3 4 5 6 6 4 6 8 8 8 8 7 7 7 7 8 7 6 5 7
14 22 21 21 24 21 17 16 10 6 4 1 1 2 3 4 6 1 6 5 6 4 4 3 4 2 4 5 5 1 6 5 5 4 3 3 3 3 4 3 4 5 8
15 15 19 16 20 21 17 15 9 8 4 2 5 1 3 1 3 6 2 5 3 7 5 4 7 4 4 6 7 6 1 1 1 2 2 2 2 2 2 4 6 8 9
16 18 19 18 20 21 23 21 10 12 7 7 8 3 9 3 2 3 1 6 3 5 7 7 7 4 6 8 9 8 6 3 3 2 2 3 4 5 5 6 8 9 10
23 20 17 17 18 19 20 21 18 12 9 9 9 4 5 3 4 3 5 5 1 3 3 5 7 7 9 11 11 11 11 8 8 7 6 6 7 7 8 8 9 10 10
17 19 16 17 16 17 17 19 17 15 13 11 11 8 7 4 5 5 3 4 4 6 4 5 1 7 5 9 10 12 13 11 9 10 9 9 9 10 11 11 12 13 14
15 15 16 16 16 16 16 18 15 13 13 14 13 10 7 7 9 8 5 6 6 4 4 5 7 8 9 10 10 10 13 12 12 12 13 13 12 13 13 15 15 16 16
16 17 18 18 17 17 17 18 17 16 15 16 15 14 13 11 13 8 7 7 6 6 5 5 7 10 8 9 10 10 11 12 13 11 13 14 14 16 17 18 18 19 19
19 18 19 21 21 20 20 20 18 18 18 16 15 15 15 13 12 10 9 8 9 10 6 6 8 10 12 12 12 12 14 13 14 13 15 16 16 18 19 20 21 22 22
21 21 21 22 23 25 26 23 22 21 20 19 18 17 17 15 14 13 10 10 11 11 12 10 9 11 12 13 14 14 15 16 17 17 17 18 20 21 23 24 24 24 25
23 24 23 24 24 24 25 26 26 24 23 22 23 21 21 19 18 17 14 15 15 14 14 16 13 13 14 16 15 14 16 16 16 19 20 21 23 25 26 28 28 28 29
26 26 25 26 26 28 28 29 29 28 27 26 26 26 24 23 23 21 19 19 16 18 18 21 19 17 16 16 17 17 17 19 20 22 24 25 25 30 31 33 35 33 36
28 29 28 29 30 30 29 31 29 31 29 31 30 32 28 28 28 27 24 22 20 22 22 21 22 21 20 19 20 20 20 22 25 27 29 31 31 33 36 34 34 31 30
30 32 32 33 35 34 31 32 31 29 32 29 32 34 32 31 30 30 29 27 26 26 25 24 24 25 26 25 24 25 25 26 26 28 31 35 35 35 35 33 34 36 36
34 34 34 35 36 35 34 33 32 30 26 27 34 34 32 31 31 30 30 30 28 27 26 24 25 25 26 27 27 28 29 28 29 33 34 35 37 39 41 41 38 40 43
43 39 38 38 35 37 36 33 30 29 28 28 29 30 30 29 31 30 29 29 28 27 27 28 27 28 29 30 30 32 32 32 33 34 36 36 39 40 42 44 43 44 43
38 42 44 40 37 39 36 34 31 32 31 31 30 29 27 27 27 27 28 28 29 28 30 30 30 31 32 33 34 35 36 37 38 38 40 40 41 41 43 43 42 45 48
38 34 46 44 40 41 37 35 36 34 34 33 31 30 28 27 28 30 29 30 30 31 33 34 34 35 36 38 39 40 42 43 40 42 42 44 44 45 46 46 47 52 54
34 33 49 46 48 44 39 37 35 33 34 34 33 30 29 30 33 33 33 33 32 33 35 37 38 39 41 43 44 42 44 45 46 47 47 48 47 46 46 46 46 49 49

GFSMA_500_spd_171.txt.gz
Wind_Speed
15 12 12 12 8 6 8 4 4 4 8 7 7 11 12 14 11 14 14 15 17 15 18 19 19 18 18 19 19 18 17 17 16 16 15 16 15 14 14 14 14 15 15
14 11 12 10 7 6 7 5 3 2 3 4 4 9 10 10 11 10 11 11 15 13 15 17 17 15 15 15 15 15 15 14 14 14 13 13 13 13 13 13 14 15 15
14 13 14 13 10 7 5 4 2 4 2 5 8 7 8 7 9 9 8 8 10 11 11 13 14 12 12 13 12 12 13 12 12 11 12 11 10 10 11 12 14 15 15
14 14 16 15 12 8 3 4 4 3 2 4 4 6 5 7 6 6 5 5 6 9 8 10 10 11 12 11 12 12 12 12 12 11 11 13 12 11 11 12 13 14 14
15 14 15 16 13 10 7 5 7 8 5 2 4 3 5 7 6 4 5 2 3 5 8 8 9 10 11 11 11 13 13 13 12 11 10 11 12 11 11 11 11 11 11
18 17 16 18 15 12 11 7 6 8 7 7 7 4 4 5 7 5 5 3 3 4 4 6 8 9 9 10 11 11 12 11 11 10 9 9 9 9 9 9 8 7 8
19 22 18 19 17 14 12 9 9 7 5 5 5 3 4 3 2 2 0 4 3 3 4 5 6 8 9 10 9 9 8 8 7 8 7 6 6 6 6 7 7 7 8
18 21 25 24 18 18 16 12 8 8 6 3 3 1 5 3 5 4 2 4 3 4 4 5 6 8 9 8 8 8 7 6 4 4 4 4 4 3 3 5 7 8 8
15 14 16 26 26 22 16 15 9 7 8 8 5 1 5 6 6 6 4 1 2 6 5 6 5 7 8 7 7 6 7 6 3 2 0 1 1 2 3 4 5 6 8
18 14 16 25 24 21 15 17 14 8 7 5 3 2 4 2 3 4 6 3 2 4 5 9 8 4 7 7 6 6 7 7 5 4 5 5 3 2 1 2 4 6 9
15 15 14 16 16 19 20 17 12 6 10 8 7 2 7 4 1 3 5 7 4 5 5 10 11 5 6 6 6 7 7 9 10 6 5 7 7 5 4 3 4 6 7
17 17 15 14 15 15 19 19 15 13 7 10 8 3 3 2 5 5 2 3 2 2 5 4 8 8 8 7 6 6 8 8 11 12 8 8 9 9 9 8 8 9 9
22 20 18 18 17 15 18 18 18 17 16 12 9 8 7 6 8 7 5 3 3 5 6 6 4 5 7 5 7 8 11 11 11 13 13 11 11 12 12 12 13 13 13
23 22 20 19 20 18 17 18 18 16 16 13 13 11 10 11 12 11 8 5 5 7 8 7 9 5 7 9 8 8 9 11 11 12 13 15 15 14 15 16 17 16 17
22 24 25 25 22 21 19 18 17 16 16 16 16 14 12 11 14 13 12 10 10 9 11 10 10 9 7 6 8 8 11 13 12 14 15 16 16 15 15 16 18 19 20
23 24 25 26 23 21 21 19 19 18 19 18 17 17 15 14 15 15 13 13 13 11 9 10 12 12 11 9 9 10 11 14 14 16 17 17 18 18 18 18 20 21 22
25 25 25 24 24 23 23 23 21 20 19 18 19 16 17 16 16 17 16 14 14 12 11 11 11 13 14 13 11 13 14 14 13 16 18 19 20 21 22 23 24 26 27
27 29 28 27 26 26 26 27 26 25 23 20 20 19 18 18 18 20 19 16 17 15 15 13 13 15 16 16 16 16 15 17 16 17 20 22 23 25 26 25 27 28 28
31 32 30 29 29 29 28 29 28 28 27 25 25 24 23 21 22 21 20 18 17 16 17 16 16 17 18 18 18 19 18 19 20 20 21 24 26 28 30 31 32 31 33
32 34 32 31 32 30 30 30 30 28 29 29 29 28 27 26 23 24 23 24 21 19 20 21 21 20 20 19 20 22 23 23 23 24 24 25 27 31 33 34 36 35 34
35 35 35 34 35 33 33 32 33 32 33 31 30 29 29 32 28 28 28 27 26 25 24 24 24 24 24 22 23 23 23 25 26 26 26 27 30 32 35 35 35 36 38
36 39 36 36 36 36 35 37 36 34 33 33 31 32 32 33 27 28 30 29 27 26 26 26 26 26 26 26 27 26 25 25 27 29 30 32 33 34 36 36 37 39 40
25 45 41 36 36 37 38 39 39 39 35 34 33 31 33 29 29 31 30 30 28 26 26 26 26 27 28 30 30 31 30 30 31 33 34 35 36 37 39 38 39 41 43
27 39 41 34 43 40 38 40 39 38 37 36 34 34 32 31 29 29 29 30 28 28 28 28 28 31 32 32 32 33 33 35 37 36 39 39 41 41 42 43 45 46 46
23 25 28 34 39 50 42 45 41 38 36 37 38 36 33 32 32 31 31 31 29 29 30 31 32 33 35 36 36 37 40 41 42 43 44 43 43 46 46 48 49 49 48
26 29 28 26 30 33 42 52 47 41 39 40 41 39 37 35 34 35 32 31 31 33 33 34 35 36 37 38 40 41 43 45 47 47 47 51 52 53 54 54 52 51 48